Flag for Japan Weather past 2 weeks in Suzuka, Japan

Now
43 °F

Quite cool.


Feels Like: 39 °F
Forecast: 38 / 48 °F
Wind: 6 mph from West

Location: Tsu

Current Time: Dec 21, 2014 at 8:22:37 AM

Latest Report: Dec 21, 2014 at 7:00 AM


Visibility: N/A

Pressure: 30.01 "Hg

Humidity: 69%

Dew point: 33 °F

Location of SuzukaLocation

Historic Weather in Suzuka — Graph

°F

Suzuka temperature yesterday

Maximum temperature yesterday: 50 °F (at 11:00 PM)
Minimum temperature yesterday: 38 °F (at 12:00 AM)
Average temperature yesterday: 42 °F

Past Weeks' High & Low Weather Summary

 TemperatureHumidityPressure
High53 °F (Dec 11, 1:00 PM)94% (Dec 20, 5:00 PM)30.52 "Hg (Dec 20, 5:00 PM)
Low33 °F (Dec 18, 1:00 AM)25% (Dec 17, 12:00 PM)29.57 "Hg (Dec 16, 4:00 PM)
Average43 °F60%30.12 "Hg
* Reported Dec 6 7:00 AM — Dec 21 7:00 AM, Suzuka, Weather by CustomWeather, © 2014

Note: Actual official high and low records may vary slightly from our data, if they occured in-between our weather recording intervals... More about our weather records

Advertising

Suzuka weather history for previous 24 hours

 ConditionsComfort  
Time TempWeatherWind HumidityBarometerVisibility
7:00 AM
Dec 21
43 °FQuite cool.6 mph69%30.01 "HgN/A
5:00 AM44 °FQuite cool.3 mph69%29.98 "HgN/A
4:00 AM46 °FCool.5 mph64%29.98 "HgN/A
3:00 AM46 °FCool.6 mph63%29.97 "HgN/A
2:00 AM47 °FCool.13 mph57%29.95 "HgN/A
1:00 AM48 °FCool.13 mph54%29.93 "HgN/A
12:00 AM49 °FCool.18 mph62%29.93 "HgN/A
11:00 PM
Dec 20
50 °FCool.17 mph63%29.92 "HgN/A
10:00 PM50 °FCool.16 mph69%29.88 "HgN/A
9:00 PM49 °FPassing clouds.12 mph75%29.88 "Hg19 mi
8:00 PM49 °FCool.12 mph76%29.85 "HgN/A
7:00 PM49 °FCool.25 mph79%29.80 "HgN/A
6:00 PM47 °FCool.5 mph88%29.76 "HgN/A
5:00 PM44 °FQuite cool.6 mph94%29.78 "HgN/A
4:00 PM43 °FQuite cool.5 mph93%29.79 "HgN/A
3:00 PM42 °FSprinkles. Overcast.5 mph93%29.83 "Hg2 mi
2:00 PM41 °FQuite cool.6 mph92%29.88 "HgN/A
1:00 PM40 °FQuite cool.5 mph87%29.92 "HgN/A
12:00 PM41 °FQuite cool.5 mph79%30.01 "HgN/A
11:00 AM41 °FQuite cool.5 mph69%30.09 "HgN/A
10:00 AM40 °FChilly.3 mph71%30.15 "HgN/A
9:00 AM39 °FSprinkles. Overcast.3 mph73%30.19 "Hg9 mi
8:00 AM39 °FChilly.2 mph74%30.23 "HgN/A
Weather by CustomWeather, © 2014

See weather overviewHow to use our weather pages